カタログに戻る

STARLINK-3614

運用中通信VLEO
NORAD 51771·PAYLOAD·🇺🇸 United States

打ち上げ Feb 25, 2022 から Vandenberg Space Force Base

Loading…

次のパス (今後24時間)

TLE

最新Source: CelesTrak SupGP

元期: Sep 14, 2026, 20:51 UTC

1 51771C 22017D   26257.86923611  .00007660  00000+0  21913-3 0  2575
2 51771  53.1582 197.8643 0001343  94.0058  38.2169 15.35399823    10

AllMySatでSTARLINK-3614をリアルタイム追跡

Download on the App Store